Location: Caltech
(34.1382°N, 118.1253°W)
Time: 20:38:06
(UTC-07:00)

COSMOS 2428 - Visible Passes

Search period start: 24 July 2014 00:00
Search period end: 03 August 2014 00:00
Orbit: 847 x 855 km, 71.0° (Epoch: 24 July)

Date Brightness Start Highest point End Pass type
(mag) Time Alt. Az. Time Alt. Az. Time Alt. Az.
24 Jul 4.5 00:11:40 10° NW 00:14:30 22° WNW 00:14:30 22° WNW visible
24 Jul 3.5 22:14:54 10° N 22:20:05 35° ENE 22:20:36 35° ENE visible
24 Jul 4.5 23:59:28 10° NW 00:02:36 23° WNW 00:02:36 23° WNW visible
25 Jul 3.5 22:02:42 10° N 22:07:53 35° ENE 22:08:44 34° E visible
25 Jul 4.4 23:47:17 10° NW 23:50:45 25° W 23:50:45 25° W visible
26 Jul 3.5 21:50:30 10° N 21:55:41 35° ENE 21:56:54 32° E visible
26 Jul 4.3 23:35:05 10° NW 23:38:55 25° W 23:38:55 25° W visible
27 Jul 3.5 21:38:18 10° N 21:43:29 35° ENE 21:45:07 30° E visible
27 Jul 4.3 23:22:53 10° NW 23:27:08 26° W 23:27:08 26° W visible
28 Jul 3.5 21:26:06 10° N 21:31:17 35° ENE 21:33:22 27° ESE visible
28 Jul 4.2 23:10:41 10° NW 23:15:19 26° WSW 23:15:23 26° WSW visible
29 Jul 3.5 21:13:54 10° N 21:19:05 36° ENE 21:21:40 24° ESE visible
29 Jul 4.2 22:58:29 10° NW 23:03:07 26° WSW 23:03:41 26° WSW visible
30 Jul 3.5 21:01:42 10° N 21:06:53 36° ENE 21:10:01 21° ESE visible
30 Jul 4.2 22:46:17 10° NW 22:50:55 26° WSW 22:52:02 25° WSW visible
31 Jul 3.5 20:49:30 10° N 20:54:41 36° ENE 20:58:25 17° ESE visible
31 Jul 4.3 22:34:05 10° NW 22:38:43 26° WSW 22:40:27 23° SW visible
01 Aug 3.5 20:37:18 10° N 20:42:29 36° ENE 20:46:52 14° SE visible
01 Aug 4.4 22:21:53 10° NW 22:26:31 26° WSW 22:28:54 20° SW visible
02 Aug 3.5 20:25:06 10° N 20:30:17 36° ENE 20:35:24 10° SE visible
02 Aug 4.4 22:09:41 10° NW 22:14:18 26° WSW 22:17:26 17° SW visible
